Location: �couen
(49.0206°N, 2.3831°E)
Time: 22:54:35
(UTC+00:00)

ATLAS 3B R/B - Pass Details

Date: 26 May 2022
Orbit: 976 x 1218 km, 63.8° (Epoch: 20 June)

Event Time Altitude Azimuth Distance (km) Brightness Sun altitude
Rises 22:47:29 0° 316° (NW) 3,971 6.7 -18.5°
Reaches altitude 10° 22:50:17 10° 309° (NW) 3,043 5.8 -18.6°
Maximum altitude 22:56:59 41° 243° (WSW) 1,659 3.6 -18.8°
Enters shadow 23:00:36 26° 193° (SSW) 2,179 3.8 -18.9°
